Simultaneous Nadir Overpasses (SNOs) Predictions

Prediction of SNOs between GOES-16 and METOP-C Satellite Orbit:

Table of predicted SNOs for the next 14.0 days since TLE Epoch: 3/13/2020
Index Date Time (GOES-16) GOES-16 Lat,Lon METOP-C Lat,Lon Distance(km) Time Diff (sec)
1 03/14/2020 14:18:14 -0.02, -75.19 -0.87, -71.50 421.14 80
2 03/16/2020 02:34:34 0.03, -75.18 -0.15, -76.10 104.66 80
3 03/17/2020 02:16:35 0.03, -75.18 0.93, -71.10 464.84 80
4 03/18/2020 14:32:48 -0.03, -75.21 0.07, -75.67 51.77 80
5 03/21/2020 02:33:50 0.03, -75.21 0.05, -75.27 6.84 80
6 03/23/2020 14:32:04 -0.02, -75.27 -0.13, -74.84 49.50 80
7 03/25/2020 02:51:04 0.03, -75.28 -0.90, -79.43 473.64 80
8 03/26/2020 02:27:45 0.02, -75.30 0.19, -74.43 97.47 80
9 03/27/2020 14:46:38 -0.03, -75.35 0.81, -79.00 417.03 80




NCC Satellite Simultaneous Nadir Overpasses (SNOs) Prediction Service
